Regional Weather Roundup
Issued by NWS Wakefield, VA

Home | Current Version | Previous Version | Graphics & Text | Print | Product List | Glossary Off
Versions: 1 2 3 4 5 6 7 8 9 10 11 12 13 14 15 16 17 18 19 20 21 22 23 24 25 26 27

000
ASUS41 KAKQ 232216
RWRAKQ

REGIONAL WEATHER ROUNDUP
NATIONAL WEATHER SERVICE WAKEFIELD VA
600 PM EDT SAT SEP 23 2017

Note: "fair" indicates few or no clouds below 12,000 feet with no
significant weather and/or obstructions to visibility. * = Denotes
station may not report precipitation (e.g., rain,snow,etc.),
thunder or fog.

VAZ042-051-052>054-056-232300-
NORTHERN VIRGINIA

CITY           SKY/WX    TMP DP  RH WIND       PRES   REMARKS
WASH NATIONAL  MOSUNNY   87  57  35 N7        30.05S
DULLES         MOSUNNY   85  59  41 NW6       30.06S
FORT BELVOIR   SUNNY     86  62  43 NW3       30.04S
QUANTICO       SUNNY     83  65  54 SW3       30.06S
FREDERICKSBRG* SUNNY     84  65  52 E3        30.05S
STAFFORD*      SUNNY     83  60  45 N3        30.10S
WARRENTON      SUNNY     85  56  36 NW3       30.07S
CULPEPER*      SUNNY     84  60  44 CALM      30.08R
MANASSAS*      SUNNY     85  62  46 N5        30.06S
LEESBURG*      SUNNY     84  64  51 W3        30.08R
WINCHESTER     HAZE      81  55  41 E5        30.08S VSB 1
FRONT ROYAL*   CLEAR     82  55  39 CALM      30.08S
LURAY*         CLEAR     84  48  28 NE5       30.09S
$$

VAZ048-049-060>072-079>083-232300-
CENTRAL AND SOUTH CENTRAL VIRGINIA

CITY           SKY/WX    TMP DP  RH WIND       PRES   REMARKS
RICHMOND       MOSUNNY   83  65  54 N10       30.05R
CHESTERFIELD*  NOT AVBL
PETERSBURG*    SUNNY     84  59  43 NE6       30.06R
HANOVER        SUNNY     83  65  54 MISG      30.07R
TAPPAHANNOCK*  SUNNY     85  52  32 CALM      30.06S
QUINTON*       FAIR      80  69  68 N3        30.05R
CHARLOTTSVILLE SUNNY     85  60  42 VRB6      30.08S
GORDONSVILLE*  CLEAR     83  63  50 CALM      30.07R
ORANGE*        SUNNY     82  61  47 CALM      30.08R
LOUISA*        SUNNY     82  63  51 CALM      30.07S
BUMPASS*       FAIR      81  65  58 CALM      30.07S
FARMVILLE*     SUNNY     85  61  43 NE7       30.06R
CREWE*         FAIR      82  63  51 N3        30.07R
FORT PICKETT*  FAIR      82  62  49 NE5       30.07R
CHASE CITY*    FAIR      82  58  43 NE3       30.07R
CLARKSVILLE*   FAIR      84  55  37 NE3       30.05R
SOUTH HILL*    SUNNY     82  63  52 CALM      30.12R
LAWRENCEVILLE* FAIR      82  62  50 CALM      30.06R
EMPORIA*       SUNNY     82  63  51 N3        30.06R
$$

VAZ088>098-232300-
SOUTHEAST VIRGINIA

CITY           SKY/WX    TMP DP  RH WIND       PRES   REMARKS
NORFOLK        SUNNY     80  67  64 N9        30.04R
VIRGINIA BEACH MOSUNNY   79  65  62 N7        30.03R
NORFOLK NAVAL  MOSUNNY   80  66  62 N8        30.05S
WEST POINT*    SUNNY     82  64  54 N3        30.06S
SALUDA*        FAIR      81  68  65 N6        30.04S
NEWPORT NEWS   SUNNY     81  68  64 NE3       30.04S
LANGLEY AFB    MOSUNNY   80  68  68 NE6       30.04R
FORT EUSTIS    SUNNY     88  69  54 N5        30.02R
WILLIAMSBURG*  SUNNY     84  70  61 NE3       30.05S
HR EXEC AP*    FAIR      81  68  64 VRB5      30.05R
FRANKLIN*      MOSUNNY   80  66  63 NE3       30.04R
US460-WAKEFLD  MOSUNNY   83  68  60 VRB3      30.04S
$$

VAZ020-022-025-037-045-232300-
WEST CENTRAL AND SOUTHWEST VIRGINIA

CITY           SKY/WX    TMP DP  RH WIND       PRES   REMARKS
STAUNTON*      SUNNY     83  52  35 NE5       30.12R
WAYNESBORO*    CLEAR     80  59  49 SE3       30.12R
HOT SPRINGS VA SUNNY     73  44  35 E6        30.24S
LYNCHBURG      SUNNY     81  53  37 NE7       30.09R
DANVILLE       SUNNY     83  59  44 VRB5      30.06R
SOUTH BOSTON*  FAIR      84  55  36 NE5       30.06R
MARTINSVILLE   SUNNY     82  60  46 E3        30.10R
ROANOKE        SUNNY     85  49  28 SE8       30.10R
BLACKSBURG     SUNNY     82  54  37 E5        30.16S
DUBLIN*        SUNNY     83  44  25 E6        30.15R
MARION*        MOSUNNY   81  47  31 E6        30.17R
HILLSVILLE*    SUNNY     78  47  33 CALM      30.16R
RICHLANDS*     FAIR      82  44  26 E3        30.14S
WISE*          SUNNY     81  55  41 N8        30.15S
ABINGDON*      SUNNY     86  54  33 SE12      30.09S
$$

MDZ021>025-VAZ099-100-232300-
SOUTHERN MARYLAND AND THE DELMARVA PENINSULA

CITY           SKY/WX    TMP DP  RH WIND       PRES   REMARKS
PATUXENT RIVER MOSUNNY   83  63  50 N7        30.04S
BAY BRIDGE APT SUNNY     82  63  51 CALM      30.04S
LEONARDTOWN    SUNNY     81  64  57 CALM      30.06S
DOVER          SUNNY     83  71  67 NW5       30.03R
GEORGETOWN     SUNNY     85  63  47 N3        30.03S
EASTON         SUNNY     84  63  48 NW7       30.07S
CAMBRIDGE      SUNNY     82  64  54 VRB5G12   30.03S
SALISBURY      SUNNY     83  67  58 NE5       30.03R
OCEAN CITY     SUNNY     77  68  73 E5        30.03S
WALLOPS ISLAND MOSUNNY   77  68  73 MISG      30.05R
ACCOMACK*      PTSUNNY   77  70  78 CALM      30.05R
$$

NCZ012>017-030>032-232300-
NORTH CENTRAL AND EASTERN NORTH CAROLINA

CITY           SKY/WX    TMP DP  RH WIND       PRES   REMARKS
ROANOKE RAPIDS FAIR      82  63  51 E3        30.04R
RALEIGH        MOSUNNY   84  57  39 E7        30.05R
ELIZABETH CITY SUNNY     80  68  66 E8        30.03S
AHOSKIE*       SUNNY     82  64  53 NE3       30.04R
EDENTON*       LGT RAIN  81  72  73 CALM      30.04S
CURRITUCK*     SUNNY     79  67  67 E5        30.05R
KILL DEVIL HLS SUNNY     73  64  72 CALM      30.03S
MANTEO         SUNNY     75  65  70 NE8       30.04S
CAPE HATTERAS  SUNNY     78  66  66 NE8       30.02S
TARBORO*       NOT AVBL
GOLDSBORO      MOSUNNY   82  66  58 NE8       30.02R
WASHINGTON     MOSUNNY   83  65  54 NE6       30.02S
GREENVILLE     MOSUNNY   84  63  48 NE8       30.04S
NEW BERN       MOSUNNY   83  65  54 E7        30.02S
WILMINGTON     MOSUNNY   81  68  64 E6        30.01R
$$

VAZ048-232300-
ELSEWHERE

CITY           SKY/WX    TMP DP  RH WIND       PRES   REMARKS
HARRISBURG PA  MOSUNNY   84  56  38 N7        30.05R
BALTIMORE      MOSUNNY   86  54  33 NW3       30.03S
ANNAPOLIS      SUNNY     83  71  67 SE3       30.03S
ANDREWS AFB    SUNNY     83  60  44 N6        30.04S
PHILADELPHIA   PTCLDY    87  50  27 N9        30.01R
HENDERSON NC   SUNNY     82  52  34 CALM      30.05S
GREENSBORO     MOSUNNY   83  61  47 NE10      30.06R
ROCKY MOUNT    SUNNY     83  64  52 NE3       30.04R
$$

VAZ100-232300-
MARINE

STATION/POSITION TIME  TEMP    WIND        PRES    WAVE   SWELL
                       AIR SEA DIR/SP/G            HT/PER HT/PER
                 (UTC) (F)     (DEG/KT/KT) (MB)    (FT/S) (FT/S)
BRANDYWINE LGT   2148   80     310/  7/  7 1016.9R
CAPE MAY NJ      2148   78 75  230/  2/  3 1016.1R
LEWES DE         2148   81 74  310/  3/  3 1016.5R
15NM E FENWICK I 2150   74 73  110/  4/  6 1017.4R   6/ 9   5/ 9
OCEAN-CITY-INLET 2148   78 76  120/  4/  6 1017.3R
WACHAPREAGUE VA  2148   76 80   80/  5/  6 1017.6R
THOMAS POINT MD  2200   81 76   60/  3/  3   N/A
GOOSES REEF MD   2200   80 77  310/  4/  4 1018.0
COVE POINT MD    2148   79     330/  4/  7 1018.1R
SOLOMONS ISLAND  2148   81 77  330/  4/  6 1017.0R
BISHOPS HEAD MD  2148   82 78  320/  8/ 10 1017.2R
PINEY POINT MD   2148          340/  5/  6   N/A
POTOMAC MD       2200   81 76  360/  8/ 10 1016.5    1
CAMBRIDGE MD     2148   84 78              1018.0R
LEWISETTA VA     2148   81 77   20/  6/  8 1017.3R
RAPPAHANNOCK LGT 2148          360/  8/  9 1017.9R
STINGRAY PT      2200   80 77   30/  6/  8 1017.6    1
YORK RVR RNG VA  2148   77     360/  3/  6 1017.7R
YORKTOWN VA      2148   80 77  110/  3/  4 1016.9R
JAMESTOWN VA     2200      80   60/  6/  8   N/A     0
DOMINION TERM VA 2148   82      50/  3/  7 1017.5R
KIPTOPEKE VA     2148      76   90/  4/  6   N/A
CHES BAY BRIDGE  2148   76 76   10/  8/ 10 1017.1R
CAPE HENRY VA    2148   76     350/  9/ 10   N/A
WILLOUBY STN VA  2148   77      40/  8/  9 1017.4R
S CRANEY ISL VA  2148   79      50/  8/  8 1017.0R
CAPE HENRY BUOY  2200      76                N/A     4/13   3/13
1ST LANDING BUOY 2200   77 77              1017.1    2/ 4
64NM E OF VA BCH 2150   71 71   10/ 10/ 14 1017.3R   8/13   8/13
DUCK PIER NC     2148   74 77   10/  6/  8 1016.7S
44100 DUCK FRF   2135      75                N/A     5/10   3/11
44056 DUCK FRF   2200      76                N/A     4/13   3/13
OREGON INLET NC  2148           20/  9/ 12 1016.9S
HATTERAS NC      2148   77 78   20/  9/ 12 1016.6R
DIAMOND SHLS NC  2150   75 76   20/ 12/ 14 1016.2S   6/12   7/12
CAPE LOOKOUT NC  2200   77      80/ 10/ 10 1016.2R
$$




USA.gov is the U.S. government's official web portal to all federal, state and local government web resources and services.